User: anonymous   Login
Location: Unspecified
(0.0000°N, 0.0000°E)
Time: 23:29:55
(UTC+00:00)
Language:

Envisat - Orbit

View from above orbital plane
View from above orbital plane
View from above satellite
View from above satellite

Ground track
Ground track

The orbit data is extracted from the following two-line orbital elements,

1 27386U 02009A   18200.74319323 -.00000014  00000-0  89103-5 0  9992
2 27386  98.1820 233.2660 0001373  96.2362  19.4324 14.37926056858209
Epoch (UTC): 19 July 2018 17:50:11
Eccentricity: 0.0001373
inclination: 98.1820°
perigee height: 764 km
apogee height: 766 km
right ascension of ascending node: 233.2660°
argument of perigee: 96.2362°
revolutions per day: 14.37926056
mean anomaly at epoch: 19.4324°
orbit number at epoch: 85820

The dashed part of the orbit path shows where the satellite is in the earth's shadow,  

DLR